カタログに戻る

STARLINK-31696

運用中通信VLEO
NORAD 59435·PAYLOAD·🇺🇸 United States

打ち上げ Apr 7, 2024 から Vandenberg Space Force Base

Loading…

次のパス (今後24時間)

TLE

最新Source: CelesTrak SupGP

元期: Sep 14, 2026, 21:03 UTC

1 59435C 24065Q   26257.87756944 -.00047019  00000+0 -13893-2 0  2570
2 59435  53.1563 119.8482 0001289  86.3790  77.8550 15.34411858    10

AllMySatでSTARLINK-31696をリアルタイム追跡

Download on the App Store